When you browse on this site, cookies collect data to enhance your experience and personalize the content and advertising you see.
Visit our Privacy Policy to learn more. By continuing to use the site, you agree to this use of cookies and data.
  • In United Kingdom
  • List of Countries
  • For 7 days
  • Water Temperature
  • Weather Map
  • Weather Widgets
  • user-avatar
    Login

    Hourly Weather Satoraljaujhely

    Today, 22 September, Sunday

    Time Temperature Precipitation Wind Pressure Humidity
    00:00 +10°C° 0 mm 1 mps 759 mmHg 62%
    01:00 +9°C° 0 mm 0 mps 758 mmHg 63%
    02:00 +9°C° 0 mm 1 mps 758 mmHg 65%
    03:00 +9°C° 0 mm 1 mps 758 mmHg 66%
    04:00 +8°C° 0 mm 1 mps 758 mmHg 68%
    05:00 +9°C° 0 mm 1 mps 758 mmHg 65%
    06:00 +10°C° 0 mm 1 mps 758 mmHg 62%
    07:00 +11°C° 0 mm 1 mps 758 mmHg 57%
    08:00 +13°C° 0 mm 1 mps 758 mmHg 51%
    09:00 +15°C° 0 mm 1 mps 757 mmHg 45%
    10:00 +18°C° 0 mm 2 mps 757 mmHg 39%
    11:00 +19°C° 0 mm 2 mps 756 mmHg 36%
    12:00 +20°C° 0 mm 2 mps 755 mmHg 34%
    13:00 +21°C° 0 mm 3 mps 755 mmHg 32%
    14:00 +21°C° 0 mm 2 mps 754 mmHg 33%
    15:00 +21°C° 0 mm 2 mps 754 mmHg 34%
    16:00 +21°C° 0 mm 2 mps 753 mmHg 36%
    17:00 +20°C° 0 mm 1 mps 753 mmHg 40%
    18:00 +16°C° 0 mm 1 mps 754 mmHg 44%
    19:00 +13°C° 0 mm 0 mps 754 mmHg 49%
    20:00 +14°C° 0 mm 1 mps 754 mmHg 50%
    21:00 +13°C° 0 mm 1 mps 754 mmHg 52%
    22:00 +13°C° 0 mm 1 mps 753 mmHg 54%
    23:00 +12°C° 0 mm 1 mps 753 mmHg 55%

    Tomorrow, 23 September, Monday

    Time Temperature Precipitation Wind Pressure Humidity
    00:00 +12°C° 0 mm 1 mps 753 mmHg 57%
    01:00 +11°C° 0 mm 1 mps 753 mmHg 59%
    02:00 +12°C° 0 mm 1 mps 753 mmHg 58%
    03:00 +12°C° 0 mm 1 mps 753 mmHg 58%
    04:00 +12°C° 0 mm 1 mps 752 mmHg 57%
    05:00 +13°C° 0 mm 1 mps 752 mmHg 56%
    06:00 +13°C° 0 mm 1 mps 752 mmHg 55%
    07:00 +14°C° 0 mm 1 mps 752 mmHg 54%
    08:00 +14°C° 0 mm 1 mps 752 mmHg 52%
    09:00 +15°C° 0 mm 1 mps 752 mmHg 51%
    10:00 +16°C° 0 mm 1 mps 752 mmHg 50%
    11:00 +16°C° 0 mm 1 mps 752 mmHg 50%
    12:00 +16°C° 0 mm 2 mps 752 mmHg 51%
    13:00 +17°C° 0 mm 2 mps 752 mmHg 51%
    14:00 +17°C° 0 mm 2 mps 752 mmHg 52%
    15:00 +17°C° 0 mm 2 mps 752 mmHg 53%
    16:00 +17°C° 0 mm 2 mps 751 mmHg 54%
    17:00 +16°C° 0 mm 2 mps 752 mmHg 57%
    18:00 +15°C° 0 mm 2 mps 752 mmHg 60%
    19:00 +14°C° 0 mm 2 mps 752 mmHg 63%
    20:00 +14°C° 0 mm 2 mps 752 mmHg 67%
    21:00 +13°C° 0 mm 2 mps 752 mmHg 71%
    22:00 +13°C° 0 mm 2 mps 752 mmHg 75%
    23:00 +12°C° 0 mm 2 mps 752 mmHg 78%

    Day after tomorrow, 24 September, Tuesday

    Time Temperature Precipitation Wind Pressure Humidity
    00:00 +12°C° 0 mm 2 mps 752 mmHg 81%
    01:00 +12°C° 0 mm 2 mps 752 mmHg 83%
    02:00 +12°C° 0 mm 2 mps 751 mmHg 85%
    03:00 +10°C° 0 mm 2 mps 751 mmHg 86%
    04:00 +10°C° 0 mm 2 mps 751 mmHg 88%
    05:00 +12°C° 0 mm 2 mps 751 mmHg 83%
    06:00 +13°C° 0 mm 2 mps 751 mmHg 78%
    07:00 +14°C° 0 mm 2 mps 751 mmHg 74%
    08:00 +16°C° 0 mm 2 mps 751 mmHg 64%
    09:00 +19°C° 0 mm 2 mps 751 mmHg 54%
    10:00 +21°C° 0 mm 2 mps 751 mmHg 44%
    11:00 +24°C° 0 mm 2 mps 750 mmHg 40%
    12:00 +25°C° 0 mm 1 mps 750 mmHg 36%
    13:00 +26°C° 0 mm 1 mps 750 mmHg 32%
    14:00 +26°C° 0 mm 1 mps 750 mmHg 34%
    15:00 +25°C° 0 mm 1 mps 750 mmHg 36%
    16:00 +25°C° 0 mm 1 mps 749 mmHg 38%
    17:00 +23°C° 0 mm 1 mps 750 mmHg 44%
    18:00 +20°C° 0 mm 1 mps 750 mmHg 51%
    19:00 +18°C° 0 mm 1 mps 750 mmHg 57%
    20:00 +16°C° 0 mm 1 mps 750 mmHg 62%
    21:00 +15°C° 0 mm 1 mps 750 mmHg 67%
    22:00 +14°C° 0 mm 1 mps 751 mmHg 71%
    23:00 +14°C° 0 mm 1 mps 750 mmHg 74%

    25 September, Wednesday

    Time Temperature Precipitation Wind Pressure Humidity
    00:00 +13°C° 0 mm 1 mps 750 mmHg 76%
    01:00 +13°C° 0 mm 1 mps 750 mmHg 78%
    02:00 +13°C° 0 mm 1 mps 750 mmHg 78%
    03:00 +13°C° 0 mm 1 mps 750 mmHg 77%
    04:00 +13°C° 0 mm 1 mps 750 mmHg 77%
    05:00 +14°C° 0 mm 1 mps 750 mmHg 76%
    06:00 +14°C° 0 mm 1 mps 750 mmHg 76%
    07:00 +14°C° 0 mm 1 mps 750 mmHg 75%
    08:00 +15°C° 0.2 mm 1 mps 750 mmHg 77%
    09:00 +15°C° 0.2 mm 2 mps 750 mmHg 79%
    10:00 +15°C° 0.2 mm 2 mps 750 mmHg 81%
    11:00 +16°C° 0 mm 2 mps 750 mmHg 80%
    12:00 +16°C° 0 mm 3 mps 750 mmHg 80%
    13:00 +17°C° 0 mm 3 mps 750 mmHg 79%
    14:00 +17°C° 0 mm 3 mps 750 mmHg 80%
    15:00 +17°C° 0 mm 3 mps 750 mmHg 81%
    16:00 +17°C° 0 mm 3 mps 749 mmHg 83%
    17:00 +16°C° 0 mm 3 mps 750 mmHg 86%
    18:00 +15°C° 0 mm 2 mps 750 mmHg 90%
    19:00 +14°C° 0 mm 2 mps 750 mmHg 94%
    20:00 +14°C° 0 mm 2 mps 750 mmHg 94%
    21:00 +14°C° 0 mm 1 mps 750 mmHg 95%
    22:00 +13°C° 0 mm 1 mps 750 mmHg 96%
    23:00 +13°C° 0 mm 1 mps 750 mmHg 95%

    26 September, Thursday

    Time Temperature Precipitation Wind Pressure Humidity
    00:00 +13°C° 0 mm 1 mps 750 mmHg 94%
    01:00 +12°C° 0 mm 0 mps 750 mmHg 94%
    02:00 +12°C° 0.2 mm 0 mps 750 mmHg 94%
    03:00 +13°C° 0.2 mm 0 mps 750 mmHg 94%
    04:00 +13°C° 0.2 mm 0 mps 750 mmHg 94%
    05:00 +13°C° 0.6 mm 0 mps 750 mmHg 94%
    06:00 +13°C° 0.6 mm 0 mps 750 mmHg 95%
    07:00 +13°C° 0.6 mm 0 mps 751 mmHg 95%
    08:00 +13°C° 0.2 mm 0 mps 751 mmHg 93%
    09:00 +14°C° 0.2 mm 0 mps 751 mmHg 92%
    10:00 +14°C° 0.2 mm 0 mps 752 mmHg 90%
    11:00 +15°C° 0.2 mm 1 mps 751 mmHg 90%
    12:00 +15°C° 0.2 mm 1 mps 751 mmHg 89%
    13:00 +15°C° 0.2 mm 1 mps 751 mmHg 89%
    14:00 +16°C° 0.1 mm 1 mps 751 mmHg 86%
    15:00 +16°C° 0.1 mm 1 mps 751 mmHg 82%
    16:00 +18°C° 0.1 mm 1 mps 751 mmHg 78%
    17:00 +16°C° 0 mm 1 mps 752 mmHg 82%
    18:00 +13°C° 0 mm 0 mps 752 mmHg 87%
    19:00 +12°C° 0 mm 0 mps 753 mmHg 91%
    20:00 +12°C° 0 mm 0 mps 753 mmHg 91%
    21:00 +12°C° 0 mm 0 mps 753 mmHg 91%
    22:00 +12°C° 0 mm 0 mps 754 mmHg 91%
    23:00 +11°C° 0 mm 0 mps 754 mmHg 91%

    27 September, Friday

    Time Temperature Precipitation Wind Pressure Humidity
    00:00 +11°C° 0 mm 0 mps 754 mmHg 91%
    01:00 +11°C° 0 mm 0 mps 754 mmHg 92%
    02:00 +10°C° 0 mm 0 mps 754 mmHg 92%
    03:00 +10°C° 0 mm 0 mps 754 mmHg 92%
    04:00 +10°C° 0 mm 0 mps 755 mmHg 92%
    05:00 +11°C° 0 mm 0 mps 755 mmHg 90%
    06:00 +11°C° 0 mm 0 mps 755 mmHg 88%
    07:00 +12°C° 0 mm 0 mps 755 mmHg 87%
    08:00 +15°C° 0 mm 1 mps 755 mmHg 80%
    09:00 +18°C° 0 mm 1 mps 755 mmHg 73%
    10:00 +19°C° 0 mm 1 mps 755 mmHg 66%
    11:00 +20°C° 0 mm 1 mps 755 mmHg 61%
    12:00 +20°C° 0 mm 2 mps 755 mmHg 56%
    13:00 +23°C° 0 mm 2 mps 754 mmHg 51%
    14:00 +21°C° 0 mm 2 mps 754 mmHg 52%
    15:00 +21°C° 0 mm 2 mps 754 mmHg 52%
    16:00 +22°C° 0 mm 1 mps 754 mmHg 53%
    17:00 +21°C° 0 mm 1 mps 754 mmHg 58%
    18:00 +19°C° 0 mm 1 mps 754 mmHg 64%
    19:00 +18°C° 0 mm 1 mps 754 mmHg 69%
    20:00 +16°C° 0 mm 1 mps 754 mmHg 70%
    21:00 +16°C° 0 mm 1 mps 755 mmHg 71%
    22:00 +15°C° 0 mm 1 mps 755 mmHg 73%
    23:00 +15°C° 0 mm 1 mps 754 mmHg 75%
    Show more